Location: Unspecified
(0.0000°N, 0.0000°E)
Time: 13:23:27
(UTC+00:00)

N. Korean satellite - Pass Details

Date: 13 September 2019
Orbit: 455 x 509 km, 97.2° (Epoch: 17 September)

Event Time Altitude Azimuth Distance (km) Brightness Sun altitude
Rises 04:59:49 0° 33° (NNE) 2,455 10.7 -14.0°
Reaches altitude 10° 05:02:10 10° 50° (NE) 1,588 10.0 -13.5°
Maximum altitude 05:04:49 21° 101° (ESE) 1,073 9.3 -12.8°
Drops below altitude 10° 05:07:29 10° 152° (SSE) 1,607 9.5 -12.1°
Sets 05:09:53 0° 169° (SSE) 2,492 10.3 -11.5°
